Regional Weather Roundup
Issued by NWS

Home | Current Version | Previous Version | Graphics & Text | Print | Product List | Glossary Off
Versions: 1 2 3 4 5 6 7 8 9 10 11 12 13 14 15 16 17 18 19 20 21 22 23 24 25 26 27 28 29 30 31 32 33 34 35 36 37 38 39 40 41 42 43 44 45 46 47 48 49 50

000
ASUS43 KMKX 301800
RWRWI

WISCONSIN REGIONAL WEATHER ROUNDUP
NATIONAL WEATHER SERVICE MILWAUKEE/SULLIVAN WI
100 PM CDT SUN APR 30 2017

NOTE: "FAIR" INDICATES FEW OR NO CLOUDS BELOW 12,000 FEET WITH NO
SIGNIFICANT WEATHER AND/OR OBSTRUCTIONS TO VISIBILITY.

WIZ001-002-006>008-014>016-023>028-301900-
NORTHWEST WISCONSIN

CITY           SKY/WX    TMP DP  RH WIND       PRES   REMARKS
SUPERIOR ARPT  CLOUDY    39  32  76 NE14G24   30.12F WCI  31
ASHLAND        CLOUDY    42  33  70 NE13G21   30.09F
6HR MIN TEMP:  36; 6HR MAX TEMP:  44;

HAYWARD        CLOUDY    47  28  47 N13       30.03F
6HR MIN TEMP:  37; 6HR MAX TEMP:  49;

SIREN          CLOUDY    46  26  44 NE12G18   30.04S
CUMBERLAND     LGT RAIN  43  32  65 NE9       30.01S
RICE LAKE      DRIZZLE   46  31  56 NE12      30.02F
CHETEK         DRIZZLE   45  32  59 E8        30.00F
LADYSMITH      CLOUDY    49  30  47 NE14      30.01F
EAU CLAIRE     CLOUDY    48  35  60 E13       29.94F
6HR MIN TEMP:  42; 6HR MAX TEMP:  48; 6HR PCP: TRACE;

MENOMONIE      DRIZZLE   46  34  62 NE10      29.98F
NEW RICHMOND   LGT RAIN  42  33  70 NE10G16   29.99F
OSCEOLA        LGT RAIN  43  37  78 N8        30.04F
$$

WIZ003>005-009-010-017-018-301900-
NORTH CENTRAL WISCONSIN

CITY           SKY/WX    TMP DP  RH WIND       PRES   REMARKS
MANITOWISH WTR CLOUDY    47  25  42 E16       30.02F
ARBOR VITAE    CLOUDY    51  28  42 NE12G20   30.00F
WOODRUFF       CLOUDY    51  28  42 NE12G20   30.00F
RHINELANDER    PTSUNNY   50  28  42 E13G25    29.99F
6HR MIN TEMP:  38; 6HR MAX TEMP:  50;

EAGLE RIVER    CLOUDY    49  20  31 E13G20    30.00F
LAND O LAKES   CLOUDY    49  22  33 NE12G17   30.04F
PHILLIPS       CLOUDY    47  29  47 NE15      29.99F
TOMAHAWK       CLOUDY    48  30  50 E7G17     29.99F
MEDFORD        CLOUDY    45  33  63 E15       29.97F
MERRILL        CLOUDY    47  33  58 E16G23    29.98F
$$

WIZ029-030-035-036-043>047-301900-
CENTRAL WISCONSIN

CITY           SKY/WX    TMP DP  RH WIND       PRES   REMARKS
WAUSAU         CLOUDY    46  33  60 E15G23    29.96F
6HR MIN TEMP:  39; 6HR MAX TEMP:  47;

MOSINEE        NOT AVBL
MARSHFIELD     CLOUDY    44  35  70 E13G25    29.95F
6HR MIN TEMP:  39; 6HR MAX TEMP:  44;

STEVENS POINT  CLOUDY    39  36  86 E12G25    29.98F WCI  32
WAUPACA        CLOUDY    42  39  89 NE12      30.00F FOG
WAUTOMA        CLOUDY    41  39  93 NE14      29.94F
6HR MIN TEMP:  39; 6HR MAX TEMP:  41;

WISC RAPIDS    CLOUDY    42  38  85 E13       29.96F
6HR MIN TEMP:  40; 6HR MAX TEMP:  43;

CAMP DOUGLAS   NOT AVBL
$$

WIZ011>013-019>022-031-037>040-048>050-301900-
NORTHEAST WISCONSIN

CITY           SKY/WX    TMP DP  RH WIND       PRES   REMARKS
ANTIGO         CLOUDY    43  33  68 E17       29.98F
SHAWANO        CLOUDY    41  38  88 NE14G21   30.03F FOG
OCONTO         CLOUDY    37  35  92 NE15      30.05R WCI  28
STURGEON BAY   MIX PCPN  37  35  92 NE13G22   30.05R FOG     WCI  29
6HR MIN TEMP:  37; 6HR MAX TEMP:  39; 6HR PCP:  0.03;

GREEN BAY      LGT RAIN  41  40  96 NE20      30.00F FOG
6HR MIN TEMP:  40; 6HR MAX TEMP:  42; 6HR PCP:  0.02;

MANITOWOC      NOT AVBL
APPLETON       DRIZZLE   39  39 100 NE14G21   29.97F WCI  31
CLINTONVILLE   CLOUDY    39  36  87 E14G20    30.01F WCI  31
OSHKOSH        LGT RAIN  40  38  93 NE13      29.95F FOG     WCI  32
6HR MIN TEMP:  40; 6HR MAX TEMP:  41; 6HR PCP:  0.02;

$$

WIZ032>034-041-042-053>061-301900-
SOUTHWEST WISCONSIN

CITY           SKY/WX    TMP DP  RH WIND       PRES   REMARKS
LA CROSSE      CLOUDY    46  39  76 E18G25    29.89F
6HR MIN TEMP:  44; 6HR MAX TEMP:  46; 6HR PCP:  0.01;

SPARTA         LGT RAIN  43  40  89 E12       29.94F
VIROQUA        CLOUDY    41  39  94 NE18      29.90F
BOSCOBEL       CLOUDY    45  39  79 NE12      29.85F
6HR MIN TEMP:  41; 6HR MAX TEMP:  46;

PRAIRIE DU CHI CLOUDY    44  37  76 NE12G21   29.85F
PLATTEVILLE    CLOUDY    44  42  93 NE18G25   29.83F
$$

WIZ056-057-062-063-064-067-068-301900-
SOUTH CENTRAL WISCONSIN

CITY           SKY/WX    TMP DP  RH WIND       PRES   REMARKS
REEDSBURG      CLOUDY    40  40 100 NE9G17    29.91F WCI  35
BARABOO/DELLS  CLOUDY    40  39  95 E15G22    29.90F FOG     WCI  32
LONE ROCK      NOT AVBL
MINERAL POINT  CLOUDY    45  43  93 NE18G28   29.83F
MADISON        DRIZZLE   44  41  89 NE18      29.86F
6HR MIN TEMP:  40; 6HR MAX TEMP:  44; 6HR PCP:  0.03;

MIDDLETON      CLOUDY    44  43  97 NE15G23   29.88F
WATERTOWN      LGT RAIN  42  42 100 NE12      29.91F
MONROE         CLOUDY    43  41  93 NE20G26   29.83F
JANESVILLE     CLOUDY    46  45  93 NE13      29.85  FOG
$$

WIZ051-052-058>065-066-070>072-301900-
SOUTHEAST WISCONSIN

CITY           SKY/WX    TMP DP  RH WIND       PRES   REMARKS
MILWAUKEE      LGT RAIN  42  41  96 N17       29.89F FOG
6HR MIN TEMP:  41; 6HR MAX TEMP:  43; 6HR PCP:  0.17;

WAUKESHA       LGT RAIN  39  39 100 NE12      29.91F FOG     WCI  32
MILWAUKEE/TIMM DRIZZLE   41  37  87 NE14G20   29.91F FOG
RACINE         LGT RAIN  42  40  92 N20G25    29.88F FOG
6HR MIN TEMP:  41; 6HR MAX TEMP:  43; 6HR PCP:  0.09;

KENOSHA        LGT RAIN  44  42  93 NE17      29.85F FOG
6HR MIN TEMP:  41; 6HR MAX TEMP:  44; 6HR PCP:  0.06;

FOND DU LAC    LGT RAIN  41  37  86 NE17      29.95F FOG
6HR MIN TEMP:  40; 6HR MAX TEMP:  41; 6HR PCP:  0.02;

SHEBOYGAN      LGT RAIN  40  38  93 NE20G26   29.95F FOG     WCI  30
6HR MIN TEMP:  39; 6HR MAX TEMP:  40; 6HR PCP:  0.03;

WEST BEND      RAIN      39  39 100 NE10G18   29.93F WCI  32
JUNEAU         LGT RAIN  40  39  96 N14G20    29.94F WCI  32
$$

LSZ147-162-301900-
LAKE SUPERIOR

STATION/POSITION TIME  TEMP    WIND        PRES    WAVE
                       AIR SEA DIR/SP/G            HT/PER
                 (UTC) (F)     (DEG/KT/KT) (MB)    (FT/S)
DEVILS ISLAND    1700   37      50/ 22/ 24 1021.8S
PORT WING        1700   39      30/ 18/ 21 1020.3S
SAXON HARBOR     1740   39      40/ 11/ 14 1019.0F
$$

LMZ867-665-643>646-301900-
LAKE MICHIGAN

STATION/POSITION TIME  TEMP    WIND        PRES    WAVE
                       AIR SEA DIR/SP/G            HT/PER
                 (UTC) (F)     (DEG/KT/KT) (MB)    (FT/S)
CHAMBERS ISLAND  1740   37      30/ 16/ 22 1017.6F
N MID LAKE BUOY  1650   37 37   60/ 21/ 25 1019.0F   5/ 6
NORTHPORT PIER   1740   37      40/ 18/ 23 1017.6F
KEWAUNEE LAKESHO 1730   38      30/ 18/ 23 1015.8R
SHEBOYGAN LAKESH 1700   39      20/ 20/ 23 1015.3R
PORT WASHINGTON  1740   41      30/ 12/ 22 1014.6F
MILWAUKEE LAKESH 1730   40      20/ 21/ 24   N/A
S MID LAKE BUOY  1650   42 40   50/ 12/ 14 1011.5R   5/ 5
KENOSHA   LAKESH 1700   42      10/ 20/ 22 1012.2
$$

TC  - TEMPERATURE IN CELSIUS
VSB - VISIBILITY IN STATUTE MILES
WCI - WIND CHILL INDEX
HX  - HEAT INDEX




USA.gov is the U.S. government's official web portal to all federal, state and local government web resources and services.